Regional Weather Roundup
Issued by NWS

Home | Current Version | Previous Version | Graphics & Text | Print | Product List | Glossary On
Versions: 1 2 3 4 5 6 7 8 9 10 11 12 13 14 15 16 17 18 19 20 21 22 23 24 25 26 27 28 29 30 31 32 33 34 35 36 37 38 39 40 41 42 43 44 45 46 47 48 49 50
000
ASUS43 KOAX 020702
RWRNE

WEATHER ROUNDUP FOR NEBRASKA
NATIONAL WEATHER SERVICE OMAHA NE
200 AM CDT SUN AUG 02 2015

NOTES: SATELLITE DATA IS BEING USED TO AUGMENT CLOUD COVER ABOVE
       12000 FEET.
       "FAIR" INDICATES FEW OR NO CLOUDS BELOW 12,000 FEET WITH NO
       SIGNIFICANT WEATHER AND/OR OBSTRUCTIONS TO VISIBILITY.

  * THESE STATIONS DO NOT REPORT WEATHER SUCH AS RAIN...SNOW OR FOG.

NEZ001>004-019>022-054>056-020800-
NEBRASKA PANHANDLE

CITY           SKY/WX    TMP DP  RH WIND       PRES   REMARKS
SCOTTSBLUFF    PTCLDY    71  55  56 SE9       30.02F
ALLIANCE       CLEAR     64  55  72 SW3       30.01S
CHADRON        CLEAR     64  55  72 W3        29.95F
KIMBALL        PTCLDY    66  55  67 S9        30.07F
SIDNEY         MOCLDY    65  55  70 W5        30.06F
$$

NEZ057>060-069>072-079>082-020800-
SOUTHWEST NEBRASKA

CITY           SKY/WX    TMP DP  RH WIND       PRES   REMARKS
NORTH PLATTE   CLEAR     61  57  87 W3        29.97S
IMPERIAL       CLOUDY    72  55  55 CALM      29.98S
LEXINGTON      PTCLDY    67  64  90 CALM      29.95F
MCCOOK         MOCLDY    74  59  59 SW7       29.95S
$$

NEZ005>010-023>029-035>040-094-020800-
NORTH CENTRAL NEBRASKA

CITY           SKY/WX    TMP DP  RH WIND       PRES   REMARKS
AINSWORTH      CLEAR     66  61  82 SW7       29.92S
BROKEN BOW     PTCLDY    64  60  87 SW3       29.95S
O`NEILL        CLEAR     67  61  83 S8        29.88F
ORD            PTCLDY    64  62  93 S3        29.91F
$$

NEZ041-046>049-061>064-073>077-083>087-020800-
SOUTH CENTRAL NEBRASKA

CITY           SKY/WX    TMP DP  RH WIND       PRES   REMARKS
GRAND ISLAND   MOCLDY    72  67  84 S9        29.91F
AURORA         PTCLDY    72  68  86 S9        29.91S
HASTINGS       PTCLDY    73  64  73 S9        29.92F
HEBRON         CLEAR     74  65  74 SW9       29.92F
HOLDREGE       CLEAR     70  60  71 SW7       29.94S
KEARNEY *      PTCLDY    72  61  68 SW7       29.93S
$$

NEZ011>018-030>034-042>045-020800-
NORTHEAST NEBRASKA

CITY           SKY/WX    TMP DP  RH WIND       PRES   REMARKS
NORFOLK        MOCLDY    67  65  93 SW5       29.87F
ALBION         MOCLDY    65  62  91 CALM      29.90F
BLAIR          CLEAR     73  69  87 S9        29.89F
COLUMBUS *     PTCLDY    64  59  82 CALM      29.89S
FREMONT        CLEAR     73  69  87 SE5       29.88F
TEKAMAH        CLEAR     69  67  93 SE3       29.86F
$$

NEZ050>053-065>068-078-088>093-020800-
SOUTHEAST NEBRASKA

CITY           SKY/WX    TMP DP  RH WIND       PRES   REMARKS
LINCOLN        CLEAR     73  70  90 S8        29.89F
OMAHA EPPLEY   PTCLDY    75  71  87 S13       29.89F
BEATRICE       PTCLDY    73  67  80 S6        29.92S
FALLS CITY     CLEAR     72  64  76 S8        29.92F
NEBRASKA CITY  CLEAR     71  67  87 S8        29.92F
$$

NEZ044-045-051>053-067-020800-
OMAHA AREA

CITY           SKY/WX    TMP DP  RH WIND       PRES   REMARKS
OMAHA EPPLEY   PTCLDY    75  71  87 S13       29.89F
BLAIR          CLEAR     73  69  87 S9        29.89F
FREMONT        CLEAR     73  69  87 SE5       29.88F
OFFUTT AFB     CLEAR     72  69  90 SE8       29.89F
WAHOO          FAIR      68  66  94 S3        29.88F
$$


USA.gov is the U.S. government's official web portal to all federal, state and local government web resources and services.